Погода в Старице

Погода в Старице : погода сейчас, прогноз погоды и архив. Всё, что Вы хотите узнать о погоде в Старице!

Поиск расширенной информации на нашем сайте:

Другие новости

Новости СМИ2

Главная страница сайта

Новости сайта

03.07.2017

Напоминаем, что на нашем специализированном сайте Метеоцентр.Азия вы можете получить высокодетализированные автоматические прогнозы погоды по пунктам России, СНГ и мира в авиационном формате (включающие направление и скорость ветра, видимость, явления погоды, количество и форму облачности, нижнюю и верхнюю границу облачности).


Погода в Старице - сегодня

Время (UTC), дата Ветер
(°,м/с) 
Видим.   Явления Облачность Т
(°С)
Тd
(°С)
f(%) Тe
(°С)
Pmin
(гПа)
dP
(гПа)
Po
(мм)
O2
(г/м3)
Тmin Tmax R s Состояние
почвы
21 17.04.18 190 (Ю) 10 км  слаб. ливневой дождь  10/10 300 м кучево-дожд. 
[Cb cap]
+11.9 +8.5 80 +12  1010.3  -1.6  741  285           
03 18.04.18 310 (СЗ) 4{10}  10 км  {морось}  9/9 300 м 
[Sc]
+8.9 +7.2 89 +8  1009.5  0.5  740  288  +8.9       
06 18.04.18 290 (З) 3{10}  10 км  слаб. ливневой дождь{морось}  10/10 300 м кучево-дожд. 
[Cb cap]
+6.8 +4.8 87 +6  1010.2  0.5  741  290  +6.8      мокрая 
09 18.04.18 290 (З) 10 км  слаб. ливневой дождь  10/10 300 м кучево-дожд. 
[Cb cap]
+6.3 +4.3 87 +5  1011.1  0.8  741  291           
21 18.04.18 330 (СЗ) 10 км  {ливн. осадки, морось}  9/9 300 м 
[Sc]
+5.2 +4.4 95 +4  1009.6  -1.4  740  292           
03 19.04.18 010 (С) 10 км  слаб. ливневой дождь  10/10 300 м кучево-дожд. 
[Cb cap]
+6.3 +5.1 92 +4  1009.1  -0.1  740  291  +5.1       
06 19.04.18 360 (С) 20000 м  {ливн. осадки}  10/10 2000 м 
[Ac As]
+6.1 +3.8 85 +4  1009.8  0.7  740  291  +5.1      мокрая 
21 19.04.18 360 (С) 20000 м    ясно 
+8.2 -2.1 48 +7  1015.1  1.5  744  291           
00 20.04.18 320 (СЗ) 10 км    ясно 
+4 -2.3 63 +3  1016.2  0.7  745  296           
09 20.04.18 310 (СЗ) 20000 м    6/4 600 м средняя 
[Cu hum|Ac trans]
+14.4 -3.6 29 +15  1016.7  -0.3  746  286           
15 20.04.18 320 (СЗ) 20000 м    10/3 600 м верхняя 
[Cu hum|Ci sp]
+14.3 -3 30 +14  1013.9  -1.3  744  285           
21 20.04.18 220 (ЮЗ) 10 км    9/9 600 м 
[Sc]
+10.1 +0.4 51 +10  1009.4  -3.4  740  288           
00 21.04.18 240 (ЮЗ) 10 км    9/9 600 м 
[Sc]
+10.4 +1.3 53 +11  1005.8  -3.4  738  286           
06 21.04.18 240 (ЮЗ) 6{10}  20000 м    8/3 2000 м средняя, верхняя 
[Ac cast|Ci fib]
+13.4 +6.7 64 +12  997.2  -4.7  732  280  +9.5        мокрая 
18 21.04.18 320 (СЗ) 12-18{24}  20000 м  слаб. ливневой дождь  9/9 300 м кучево-дожд. 
[Cb cap]
+6.1 +1.9 74 +2  994.2  5.4  729  287    +20.7     
03 22.04.18 330 (СЗ) 5{13}  20000 м    9/9 600 м 
[Sc]
+2.5 -1 78 999.7  1.1  733  293  +2.4    0.6     
06 22.04.18 340 (С) 5{13}  20000 м  в посл. час ливневой дождь  9/9 300 м кучево-дожд. 
[Cb cap]
+2.6 -0.1 82 1001  1.3  734  293  +2.2    0.6    мокрая 
18 22.04.18 350 (С) 4{14}  20000 м  в посл. час крупа{ливн. осадки}  9/9 300 м кучево-дожд. 
[Cb cap]
+1.5 -5.4 60 -1  1010.7  2.3  741  297    +4.7  0.4     
21 22.04.18 340 (С) 10 км    9/9 600 м 
[Sc]
+0.4 -5.5 65 -1  1012.4  1.5  742  299           
00 23.04.18 330 (СЗ) 10 км    3/3 600 м 
[Sc]
-1.8 -7.1 67 -3  1013.8  1.2  743  302           
03 23.04.18 330 (СЗ) 20000 м    ясно 
-2.7 -7.2 71 -4  1015.1  1.2  744  303  -3.1    0.1     
09 23.04.18 310 (СЗ) 3{10}  20000 м    6/0 верхняя 
[Ci fib]
+5.9 -10.3 30 +5  1015.4  0.1  744  295           
15 23.04.18 360 (С) 20000 м    ясно 
+8.1 -11.5 24 +7  1013.6  -0.5  743  292           
21 23.04.18 тихо ()   10 км    ясно 
-2.5 -7.2 70 -3  1014.7  -0.2  743  303           
00 24.04.18 тихо ()   10 км    ясно 
-4.8 -7 85 -5  1015.4  0.4  744  306           
Время (UTC), дата Ветер
(°,м/с) 
Видим.   Явления Облачность Т
(°С)
Тd
(°С)
f(%) Тe
(°С)
Pmin
(гПа)
dP
(гПа)
Po
(мм)
O2
(г/м3)
Тmin Tmax R s Состояние
почвы

Для получения пояснительной информации подведите курсор к названию столбца.

ПОГОДА в Старице - архив

Всё, что Вы хотите узнать о погоде в Старице - удобно и подробно!

Выберите нужную дату (начиная с 1 января 2015* года) и нажмите кнопку "Найти".
Будут отображены архивные сводки погоды по пункту Старица, начиная с указанной даты.


Отображать данные в формате CSV (для использования в таблицах Excel)


Внимание! Наш архив погоды предназначен исключительно для личного некоммерческого использования в познавательных целях. Если Вам необходимы официальные справки о состоянии погоды (для производственных, юридических, коммерческих и т.п. целей), обращайтесь в органы Росгидромета.

*Примечание: данная дата относится к архиву по метеостанциям СССР (Россия, СНГ, Балтия).
Архив по метеостанциям Зарубежной Европы и Азии (кроме Китая) хранится 10 дней, по другим регионам земного шара (Китай, Африка, Америка, Австралия, Океания) - 1 день.

Старица - район местоположения метеостанции


Название, широта, долгота, высота метеостанции:
Старица 56.5°ш. 34.9°д. 181 м над ур. моря [Российская Федерация]

Дополнительная информация

В oтличие oт бoльшинства пoгoдных сайтoв мы публикуем пoдрoбную метеoинфoрмацию в детальнoм прoфессиoнальнoм фoрмате.

Характеристики температуры и влажнoсти вoздуха измеряются на высoте 2 м в тени вдали oт зданий и деревьев.
Скoрoсть ветра измеряется на высoте 10 м (на урoвне рoста челoвека скoрoсть ветра ниже в 1.5-2 раза). Если метеoстанция нахoдится в гoрoде или в лесу, тo скoрoсть ветра занижена на 2-4 м/с пo сравнению с oткрытым местoм. Скoрoсть ветра над акватoриями крупных рек и oзёр, а также на вершинах хoлмoв на 2-5 м/с выше, чем в oбычных услoвиях.
Атмoсфернoе давление в разных тoчках местнoсти мoжет значительнo oтличаться oт давления на метеoстанции, в зависимoсти oт услoвий рельефа (при пoдъёме на 10 м давление пoнижается примернo на 1 мм рт.ст.).